Weather History for Zanesville, OH

Change the Weather History Date:

Wednesday, February 13, 2013

  Actual Average Record
Temperature  
Mean Temperature 30 °F 31 °F  
Max Temperature 37 °F 40 °F 66 °F (1990)
Min Temperature 23 °F 23 °F -5 °F (1979)
Degree Days  
Heating Degree Days 35 34  
Month to date heating degree days 473 449  
Since 1 July heating degree days 3611 3716  
Cooling Degree Days 0 0  
Month to date cooling degree days 0 0  
Year to date cooling degree days 0 0  
Moisture  
Dew Point 27 °F    
Average Humidity 85    
Maximum Humidity 100    
Minimum Humidity 70    
Precipitation  
Precipitation 0.12 in 0.07 in 1.43 in (1966)
Month to date precipitation 0.55 1.00  
Year to date precipitation 2.67 3.66  
Sea Level Pressure  
Sea Level Pressure 29.80 in    
Wind  
Wind Speed 3 mph (WNW)    
Max Wind Speed 10 mph    
Max Gust Speed 14 mph    
Visibility 4 miles    
Events Fog , Snow    
T = Trace of Precipitation, MM = Missing Value Source: NWS Daily Summary

Daily Weather History Graph

Daily Weather History Graph

Search for Another Location

Airport:

Trip Planner

Search our weather history database for the weather conditions in past years. The results will help you decide how hot, cold, wet, or windy it might be!

Date:

Astronomy

Feb. 13, 2013 Rise Set
Actual Time 7:22 AM EST 6:01 PM EST
Civil Twilight 6:54 AM EST 6:29 PM EST
Nautical Twilight 6:22 AM EST 7:01 PM EST
Astronomical Twilight 5:51 AM EST 7:32 PM EST
Moon 8:51 AM EST (2/13) 10:02 PM EST (2/13)
Length of Visible Light 11h 34m
Length of Day
10h 39m
Waxing Crescent, 13% of the Moon is Illuminated
Feb 13
Waxing Crescent
Feb 17
First Quarter
Feb 25
Full
Mar 4
Last Quarter
Mar 11
New

Hourly Weather History & Observations

Time (EST) Temp. Windchill Dew Point Humidity Pressure Visibility Wind Dir Wind Speed Gust Speed Precip Events Conditions
12:53 AM 27.0 °F - 21.9 °F 81% 29.91 in 10.0 mi Calm Calm - N/A   Clear
1:53 AM 25.0 °F - 21.0 °F 85% 29.90 in 10.0 mi Calm Calm - N/A   Clear
2:53 AM 25.0 °F - 21.0 °F 85% 29.88 in 10.0 mi Calm Calm - N/A   Scattered Clouds
3:53 AM 25.0 °F - 21.0 °F 85% 29.87 in 10.0 mi Calm Calm - N/A   Clear
4:53 AM 25.0 °F - 21.0 °F 85% 29.86 in 10.0 mi Calm Calm - N/A   Clear
5:53 AM 24.1 °F - 21.0 °F 88% 29.85 in 10.0 mi Calm Calm - N/A   Partly Cloudy
6:53 AM 25.0 °F - 21.9 °F 88% 29.83 in 9.0 mi Calm Calm - N/A   Mostly Cloudy
7:53 AM 28.0 °F 22.8 °F 24.1 °F 85% 29.79 in 7.0 mi NNE 4.6 mph - N/A   Mostly Cloudy
8:53 AM 30.9 °F - 25.0 °F 79% 29.80 in 8.0 mi Calm Calm - N/A   Overcast
9:53 AM 33.1 °F - 26.1 °F 75% 29.80 in 8.0 mi Calm Calm - N/A   Mostly Cloudy
10:53 AM 35.1 °F 31.0 °F 27.0 °F 72% 29.80 in 9.0 mi NNW 4.6 mph - N/A   Overcast
11:53 AM 35.1 °F 27.9 °F 26.1 °F 70% 29.78 in 9.0 mi NNW 9.2 mph - N/A   Mostly Cloudy
12:53 PM 37.0 °F 30.4 °F 28.0 °F 70% 29.76 in 8.0 mi NNW 9.2 mph - N/A   Overcast
1:53 PM 34.0 °F 29.8 °F 28.0 °F 79% 29.74 in 5.0 mi North 4.6 mph - N/A   Haze
2:04 PM 33.8 °F 28.6 °F 28.4 °F 81% 29.71 in 1.8 mi NNW 5.8 mph - 0.00 in Snow Light Snow
2:09 PM 32.0 °F 24.8 °F 28.4 °F 87% 29.71 in 1.2 mi NNW 8.1 mph - 0.00 in Snow Light Snow
2:17 PM 32.0 °F 27.5 °F 30.2 °F 93% 29.72 in 0.8 mi North 4.6 mph - 0.00 in Snow Light Snow
2:32 PM 32.0 °F - 30.2 °F 93% 29.72 in 0.5 mi Calm Calm - 0.00 in Fog , Snow Snow
2:53 PM 30.9 °F 27.5 °F 30.0 °F 96% 29.75 in 0.2 mi WNW 3.5 mph - 0.01 in Fog , Snow Heavy Snow
3:33 PM 30.2 °F - 30.2 °F 100% 29.73 in 0.2 mi Calm Calm - 0.01 in Fog , Snow Snow
3:53 PM 30.9 °F 24.3 °F 30.0 °F 96% 29.77 in 0.2 mi NW 6.9 mph - 0.02 in Fog , Snow Snow
4:03 PM 30.2 °F 22.6 °F 30.2 °F 100% 29.74 in 0.5 mi NW 8.1 mph - 0.01 in Fog , Snow Snow
4:28 PM 30.2 °F 23.4 °F 30.2 °F 100% 29.75 in 1.2 mi NW 6.9 mph - 0.02 in Snow Light Snow
4:34 PM 30.2 °F 24.3 °F 30.2 °F 100% 29.75 in 1.8 mi NW 5.8 mph - 0.03 in Snow Light Snow
4:41 PM 30.2 °F 25.4 °F 30.2 °F 100% 29.75 in 2.0 mi NW 4.6 mph - 0.03 in   Overcast
4:48 PM 32.0 °F 27.5 °F 30.2 °F 93% 29.75 in 2.5 mi NW 4.6 mph - 0.03 in   Overcast
4:53 PM 32.0 °F 28.7 °F 30.0 °F 92% 29.78 in 2.5 mi WNW 3.5 mph - 0.04 in   Overcast
5:25 PM 32.0 °F 28.7 °F 28.4 °F 87% 29.76 in 3.0 mi West 3.5 mph - 0.02 in   Overcast
5:32 PM 32.0 °F 27.5 °F 28.4 °F 87% 29.76 in 2.5 mi WNW 4.6 mph - 0.02 in   Overcast
5:39 PM 32.0 °F 28.7 °F 28.4 °F 87% 29.76 in 3.0 mi West 3.5 mph - 0.03 in   Overcast
5:53 PM 32.0 °F 27.5 °F 28.9 °F 88% 29.79 in 3.0 mi West 4.6 mph - 0.04 in   Overcast
6:09 PM 30.2 °F 25.4 °F 28.4 °F 93% 29.77 in 2.5 mi West 4.6 mph - N/A   Overcast
6:17 PM 30.2 °F 25.4 °F 28.4 °F 93% 29.77 in 4.0 mi West 4.6 mph - 0.01 in   Overcast
6:53 PM 30.9 °F 27.5 °F 28.9 °F 92% 29.82 in 3.0 mi West 3.5 mph - 0.01 in   Overcast
7:53 PM 30.0 °F 23.2 °F 28.0 °F 92% 29.85 in 4.0 mi WSW 6.9 mph - N/A   Overcast
8:53 PM 28.0 °F 21.7 °F 26.1 °F 92% 29.87 in 4.0 mi WSW 5.8 mph - N/A   Partly Cloudy
9:53 PM 27.0 °F 21.6 °F 25.0 °F 92% 29.88 in 3.0 mi WSW 4.6 mph - N/A   Clear
10:26 PM 26.6 °F - 24.8 °F 93% 29.87 in 2.5 mi Calm Calm - N/A   Clear
10:53 PM 26.1 °F 21.9 °F 24.1 °F 92% 29.90 in 3.0 mi SSW 3.5 mph - N/A   Clear
11:10 PM 24.8 °F - 24.8 °F 100% 29.88 in 2.5 mi Calm Calm - N/A   Clear
11:21 PM 24.8 °F 20.5 °F 24.8 °F 100% 29.88 in 3.0 mi SW 3.5 mph - N/A   Clear
11:50 PM 24.8 °F - 23.0 °F 93% 29.89 in 2.5 mi Calm Calm - N/A   Clear
11:53 PM 24.1 °F - 21.9 °F 91% 29.92 in 3.0 mi Calm Calm - N/A   Clear